Tracking 20621 objects as of 29-Mar-2020
HD Live streaming from Space Station
objects crossing your sky now

OPS 5798 (TRANSIT 5B-4)

Track OPS 5798 (TRANSIT 5B-4) now!
10-day predictions
OPS 5798 (TRANSIT 5B-4) is classified as:


NORAD ID: 897
Int'l Code: 1964-063B
Perigee: 1,053.5 km
Apogee: 1,080.0 km
Inclination: 90.2 °
Period: 106.4 minutes
Semi major axis: 7437 km
RCS: 0.5573 m2 (medium)
Launch date: October 6, 1964
Source: United States (US)
Launch site: AIR FORCE WESTERN TEST RANGE (AFWTR)
aabbcc
Your satellite tracking list
Your tracking list is empty




NASA's NSSDC Master Catalog

Two Line Element Set (TLE):
1   897U 64063B   20088.89530900 +.00000007 +00000-0 -25871-5 0  9991
2   897 090.1667 029.5612 0017854 303.1119 121.6854 13.53445916737996
Source of the keplerian elements: AFSPC